Location: Kaarina
(60.4167°N, 22.4167°E)
Time: 02:53:38
(UTC+03:00)

CARTOSAT-1 - Pass Details

Date: 24 August 2019
Orbit: 617 x 618 km, 97.8° (Epoch: 21 September)

Event Time Altitude Azimuth Distance (km) Brightness Sun altitude
Exits shadow 22:52:20 14° 166° (SSE) 1,722 5.3 -11.8°
Maximum altitude 22:56:01 81° 253° (WSW) 636 3.6 -12.1°
Drops below altitude 10° 23:00:22 10° 342° (NNW) 2,000 7.4 -12.5°
Sets 23:02:35 0° 343° (NNW) 2,910 8.4 -12.6°
